THORAD AGENA D DEB

Satellite information

Favourite Embed

Satellite Type and Status

DEBRISIN ORBIT

Key statistics

Satellite THORAD AGENA D DEB at a glance.

Uptime

20338

Days in orbit

Revolutions

≈ 14.0

Per day

Orbit

SSO

Sun Synchronous Orbit

Inclination

100.0

Latest

Satellite identification and parameters

Extended collection of information and parameters for THORAD AGENA D DEB.

Object identification

Identified? True

Debris? True

Object name: THORAD AGENA D DEB

International designator: 1970-025HL

Object number (NORAD): 4990

Object ID (CCSDS): 4990

Country: UNITED STATES OF AMERICA (US)

Current information (Y/N): Y

RCS size: SMALL

Orbital parameters

Period: 102.567 minutes

Inclination: 99.998 deg

SMA: 7258.266 km

Apoapsis: 919.584 km

Periapsis: 840.678 km

RAAN: 106.0693 deg

Eccentricy: 0.00543556

Argument of periapsis: 213.877 deg

Mean anomaly: 145.8917 deg

Mean motion: 14.03955812 rev/day

Mean motion (dot): 0.0000422 rev/day2

B* drag term: 0.0026678231 1/REarth

Two-line elements (TLE)

Creation date: Dec. 12, 2025, 10:14 a.m.

Reference frame: TEME

Reference center: EARTH

Epoch: Dec. 12, 2025, 5:54 a.m. UTC

TLE line 0: 0 THORAD AGENA D DEB

TLE line 1: 1 04990U 70025HL 25346.24644181 .00004220 00000-0 26678-2 0 9995

TLE line 2: 2 04990 99.9980 106.0693 0054356 213.8770 145.8917 14.03955812794209

Live tracking on map

Real-time ground track for satellite THORAD AGENA D DEB.

In-orbit conjunctions

A list of the most updated potential collisions computed for object THORAD AGENA D DEB.

Target Orbit TCA Probability of collision Miss distance Type
CZ-6A DEB SSO 2025-06-21 22:50:16 0.0003034673 34.0 (m) DEBRIS
CZ-6A DEB LEO 2025-02-21 05:29:36 0.0001432947 381.0 (m) DEBRIS
SL-16 DEB LEO 2024-11-11 11:16:39 0.0004498519 133.0 (m) DEBRIS
SL-3 R/B LEO 2024-09-08 17:49:10 0.0002089442 251.0 (m) ROCKET BODY

Associated space launch

Meteorological research and development satellite

THORAD AGENA D DEB was lifted into orbit during the mission ‘Thorad SLV-2G Agena D | Nimbus 4’, on board a Thorad SLV-2G Agena D space rocket.

The launch took place on April 8, 1970, 8:17 a.m. from Space Launch Complex 2E.

For more information about the launch, click the button.

Launch to space Thorad SLV-2G Agena D | Nimbus 4
Thorad SLV-2G Agena D | Nimbus 4

Agency: N/A

Status: Launch Successful

Launch date: April 8, 1970, 8:17 a.m. UTC

Rocket: Thorad SLV-2G Agena D

Launch pad: Space Launch Complex 2E

Location: Vandenberg SFB, CA, USA

...

Latest news about this satellite

There are no fresh news available about this satellite. Check back as we update our databases every day.


Newsletter sign-up

Weekly statistics, charts and insights to help you stay on top of the space industry.